星链-4307 (STARLINK-4307 )

导读 | 星芒AI

STARLINK-4307 是 SpaceX Starlink 项目中的一颗低轨通信卫星,属于第 13 批组网发射的星链卫星之一。该卫星于 2021 年 10 月 28 日由猎鹰 9 号火箭送入近地轨道,旨在为全球提供高速互联网服务。它运行在约 550 公里的高度,设计寿命约为 5 年。STARLINK-4307 采用先进的相控阵天线和激光通信技术,支持高速、低延迟的网络连接,主要服务于偏远和网络基础设施薄弱的地区。

基本信息
目录编号:
53063
目录名称:
STARLINK-4307
国际标识:
2022-077W
轨道中心:
EARTH
卫星名称:
星链-4307
卫星全名:
星链-4307 (STARLINK-4307 )
卫星状态:
在轨 (已飞行1213 天)
发射日期:
2022-07-11 UTC
国别 :
美国 (US)
星等 :
--
轨道信息
数据来源 国际轨道数据 AOE轨道数据
星历时间 2025-11-05T02:05:51+0800
8小时前
查看轨道信息
2025-11-04T20:00:00+0800
14小时前
查看轨道信息
半长轴 6927.664km 6927.62km
偏心率 0.0002394 0.0002344
轨道倾角 97.604° 97.603°
近地点辐角 86.317° 88.221°
升交点赤经 128.012° 127.761°
平近点角 273.832° 335.740°
近地点 547.87km 547.861km
远地点 551.188km 551.109km
周期 95.640分钟 95.639分钟
每日圈数 15.056451 15.056594
详细信息
固有亮度:
5
最大亮度:
2.5
卫星平台:
Starlink v1.5
覆盖范围:
全球
运营商:
太空探索技术公司
运营商所在国:
美国
制造商(研发单位):
太空探索技术公司
制造商所在国:
美国
使用方式:
暂无
卫星简介
星链(Starlink)计划是由太空探索技术公司(SpaceX)提出的一个巨型低轨卫星互联网星座项目,计划在2019年至2024年间在太空搭建由约1.2万颗卫星组成的“星链”网络,其中1584颗将部署在地球上空550千米处的近地轨道,并从2020年开始工作。该卫星仍在工作。
2D轨道图
3D轨道图
轨道高度分析图
轨道倾角分析图
轨道综合分析图
查看轨道综合分析图